Flag for U.S.A. Weather past 2 weeks in Columbus, Georgia, U.S.A.

Now
75 °F

Overcast.


Feels Like: 73 °F
Forecast: 69 / 84 °F
Wind: 6 mph from East

Location: Columbus Metropolitan Airport

Current Time: Sep 15, 2014 at 12:12:15 AM

Latest Report: Sep 14, 2014 at 10:51 PM


Visibility: 10 mi

Pressure: 30.14 "Hg

Humidity: 94%

Dew point: 73 °F

Location of ColumbusLocation

Historic Weather in Columbus — Graph

°F

Columbus temperature yesterday

Maximum temperature yesterday: 89 °F (at 2:51 PM)
Minimum temperature yesterday: 71 °F (at 5:51 AM)
Average temperature yesterday: 78 °F

Past Weeks' High & Low Weather Summary

 TemperatureHumidityPressure
High96 °F (Sep 2, 4:51 PM)97% (Aug 31, 5:51 AM)30.16 "Hg (Aug 31, 5:51 AM)
Low71 °F (Sep 4, 3:51 AM)37% (Sep 2, 4:51 PM)29.87 "Hg (Sep 7, 4:51 PM)
Average79 °F77%30.03 "Hg
* Reported Aug 30 10:51 PM — Sep 14 10:51 PM, Columbus, Weather by CustomWeather, © 2014

Note: Actual official high and low records may vary slightly from our data, if they occured in-between our weather recording intervals... More about our weather records

Advertising

Columbus weather history for previous 24 hours

 ConditionsComfort  
Time TempWeatherWind HumidityBarometerVisibility
10:51 PM
Sep 14
75 °FOvercast.6 mph94%30.14 "Hg10 mi
9:51 PM75 °FPassing clouds.8 mph94%30.13 "Hg10 mi
8:51 PM76 °FClear.6 mph94%30.11 "Hg10 mi
7:51 PM77 °FSunny.10 mph90%30.09 "Hg10 mi
6:51 PM79 °FThunderstorms. Mostly cloudy.9 mph82%30.08 "Hg10 mi
5:51 PM86 °FLight rain. Cloudy.6 mph61%30.05 "Hg10 mi
4:51 PM88 °FSunny.No wind54%30.05 "Hg10 mi
3:51 PM87 °FPassing clouds.No wind55%30.07 "Hg10 mi
2:51 PM89 °FPassing clouds.5 mph55%30.09 "Hg10 mi
1:51 PM86 °FScattered clouds.No wind63%30.11 "Hg10 mi
12:51 PM85 °FSunny.3 mph63%30.12 "Hg10 mi
11:51 AM82 °FSunny.No wind70%30.15 "Hg10 mi
10:51 AM79 °FScattered clouds.3 mph77%30.15 "Hg10 mi
9:51 AM74 °FOvercast.3 mph85%30.14 "Hg10 mi
8:51 AM72 °FOvercast.3 mph84%30.14 "Hg10 mi
7:51 AM71 °FClear.3 mph87%30.13 "Hg10 mi
6:51 AM71 °FPassing clouds.3 mph90%30.11 "Hg10 mi
5:51 AM71 °FClear.No wind90%30.09 "Hg10 mi
4:51 AM72 °FClear.No wind91%30.08 "Hg10 mi
3:51 AM72 °FClear.No wind93%30.08 "Hg10 mi
2:51 AM74 °FClear.No wind91%30.08 "Hg10 mi
1:51 AM75 °FClear.3 mph88%30.07 "Hg10 mi
12:51 AM74 °FPassing clouds.No wind94%30.09 "Hg10 mi
Weather by CustomWeather, © 2014

See weather overviewHow to use our weather pages